SCP
0 0 0 0 0 0 0 0 0 0 0 0 0 0 0 0 0 0 0 0 0 0 0 0 0 0 0 0 0 0 0 0 0 0 0 0 0 0 0 0 0 0 0 0
0 0 0 0 0 0 0 0 0 0 0 0 0 0 0 0 0 0 0 0 0 0 0 0 0 0 0 0 0 0 0 0 0 0 0 0 0 0 0 0 0 0 0 0
0 0 0 0 0 0 0 0 0 0 0 0 0 0 0 0 0 0 0 0 0 0 0 0 0 0 0 0 0 0 0 0 0 0 0 0 0 0 0 0 0 0 0 0
0 0 0 0 0 0 0 0 0 0 0 0 0 0 0 0 0 0 0 0 0 0 0 0 0 0 0 0 0 0 0 0 0 0 0 0 0 0 0 0 0 0 0 0
0 0 0 0 0 0 0 0 0 0 0 0 0 0 0 0 0 0 0 0 0 0 0 0 0 0 0 0 0 0 0 0 0 0 0 0 0 0 0 0 0 0 0 0
0 0 0 0 0 0 0 0 0 0 0 0 0 0 0 0 0 0 0 0 0 0 0 0 0 0 0 0 0 0 0 0 0 0 0 0 0 0 0 0 0 0 0 0
0 0 0 0 0 0 0 0 0 0 0 0 0 0 0 0 0 0 0 0 0 0 0 0 0 0 0 0 0 0 0 0 0 0 0 0 0 0 0 0 0 0 0 0
0 0 0 0 0 0 0 0 0 0 0 0 0 0 0 0 0 0 0 0 0 0 0 0 0 0 0 0 0 0 0 0 0 0 0 0 0 0 0 0 0 0 0 0
0 0 0 0 0 0 0 0 0 0 0 0 0 0 0 0 0 0 0 0 0 0 0 0 0 0 0 0 0 0 0 0 0 0 0 0 0 0 0 0 0 0 0 0
0 0 0 0 0 0 0 0 0 0 0 0 0 0 0 0 0 0 0 0 0 0 0 0 0 0 0 0 0 0 0 0 0 0 0 0 0 0 0 0 0 0 0 0
0 0 0 0 0 0 0 0 0 0 0 0 0 0 0 0 0 0 0 0 0 0 0 0 0 0 0 0 0 0 0 0 0 0 0 0 0 0 0 0 0 0 0 0
0 0 0 0 0 0 0 0 0 0 0 0 0 0 0 0 0 0 0 0 0 0 0 0 0 0 0 0 0 0 0 0 0 0 0 0 0 0 0 0 0 0 0 0
0 0 0 0 0 0 0 0 0 0 0 0 0 0 0 0 0 0 0 0 0 0 0 0 0 0 0 0 0 0 0 0 0 0 0 0 0 0 0 0 0 0 0 0
0 0 0 0 0 0 0 0 0 0 0 0 0 0 0 0 0 0 0 0 0 0 0 0 0 0 0 0 0 0 0 0 0 0 0 0 0 0 0 0 0 0 0 0
0 0 0 0 0 0 0 0 0 0 0 0 0 0 0 0 0 0 0 0 0 0 0 0 0 0 0 0 0 0 0 0 0 0 0 0 0 0 0 0 0 0 0 0
0 0 0 0 0 0 0 0 0 0 0 0 0 0 0 0 0 0 0 0 0 0 0 0 0 0 0 0 0 0 0 0 0 0 0 0 0 0 0 0 0 0 0 0
0 0 0 0 0 0 0 0 0 0 0 0 0 0 0 0 0 0 0 0 0 0 0 0 0 0 0 0 0 0 0 0 0 0 0 0 0 0 0 0 0 0 0 0
0 0 0 0 0 0 0 0 0 0 0 0 0 0 0 0 0 0 0 0 0 0 0 0 0 0 0 0 0 0 0 0 0 0 0 0 0 0 0 0 0 0 0 0
0 0 0 0 0 0 0 0 0 0 0 0 0 0 0 0 0 0 0 0 0 0 0 0 0 0 0 0 0 0 0 0 0 0 0 0 0 0 0 0 0 0 0 0
0 0 0 0 0 0 0 0 0 0 0 0 0 0 0 0 0 0 0 0 0 0 0 0 0 0 0 0 0 0 0 0 0 0 0 0 0 0 0 0 0 0 0 0
0 0 0 0 0 0 0 0 0 0 0 0 0 0 0 0 0 0 0 0 0 0 0 0 0 0 0 0 0 0 0 0 0 0 0 0 0 0 0 0 0 0 0 0
-0 -0 -0 -0 -0 0 0 0 0 0 0 0 0 0 0 0 0 0 0 0 0 0 0 0 0 0 0 0 0 0 0 0 0 0 0 0 0 0 0 0 0 0 0 0
-0 -0 0 0 0 0 0 0 0 0 0 0 0 0 0 0 0 0 0 0 0 0 0 0 0 0 0 0 0 0 0 0 0 0 0 0 0 0 0 0 0 0 0 0
0 0 0 0 0 0 0 0 0 0 0 0 0 0 0 0 0 0 0 0 0 0 0 0 0 0 0 0 0 0 0 0 0 0 0 0 0 0 0 0 0 0 0 0
0 0 0 0 0 0 0 0 0 0 0 0 0 0 0 0 0 0 0 0 0 0 0 0 0 0 0 0 0 0 0 0 0 0 0 0 0 0 0 0 0 0 0 0
0 0 0 0 0 0 0 0 0 0 0 0 0 0 0 0 0 0 0 0 0 0 0 0 0 0 0 0 0 0 0 0 0 0 0 0 0 0 0 0 0 0 0 0
0 0 0 0 0 0 0 0 0 0 0 0 0 0 0 0 0 0 0 0 0 0 0 0 0 0 0 0 0 0 0 0 0 0 0 0 0 0 0 0 0 0 0 0
Wind_Speed
6 5 3 5 7 5 7 8 9 8 8 11 9 9 8 6 5 5 5 6 7 7 6 6 6 6 6 6 6 5 5 6 7 7 6 6 6 7 7 7 8 8 8 9
3 2 3 5 6 4 5 4 6 4 9 9 5 3 4 6 6 7 8 8 8 8 7 7 7 6 6 6 6 4 5 7 7 6 6 6 7 7 7 8 8 8 9 9
4 5 3 5 4 3 4 5 8 9 9 3 5 9 10 9 8 9 10 9 9 9 8 8 7 6 7 7 5 4 6 6 6 6 6 7 7 7 8 8 8 9 9 9
1 1 3 10 4 5 5 5 7 6 6 7 9 8 6 7 9 10 10 9 10 9 8 7 6 5 5 5 5 5 5 6 6 6 7 7 7 8 8 7 8 8 9 10
4 3 6 10 5 4 4 6 6 7 7 4 2 2 5 8 10 12 12 10 10 9 7 5 6 5 4 5 4 5 6 6 6 6 7 7 8 8 8 7 8 8 9 10
4 4 6 12 5 2 4 5 7 7 8 6 7 3 10 9 10 12 10 8 8 6 5 5 5 3 4 5 5 6 6 6 6 6 7 8 9 9 8 7 8 9 10 10
4 5 9 10 2 4 3 10 6 10 10 11 12 13 9 6 9 12 11 10 7 6 5 6 5 4 5 5 7 7 5 5 6 6 7 8 8 8 8 8 8 9 10 10
4 2 8 4 5 8 11 6 4 9 11 13 15 12 7 7 9 10 10 9 8 6 7 5 5 5 6 7 6 5 5 5 6 7 7 7 7 8 8 8 8 9 9 10
9 9 9 4 8 9 4 6 7 8 11 14 14 13 12 10 10 10 11 9 7 7 7 5 5 6 7 7 5 4 5 6 7 7 7 7 8 8 8 7 6 7 7 8
5 10 9 8 8 8 8 11 11 10 10 10 14 15 13 11 10 10 9 8 7 7 7 6 6 7 8 6 4 4 5 6 6 7 8 7 6 6 7 7 7 7 7 7
6 10 9 9 7 7 8 8 10 9 8 10 13 14 13 11 12 10 8 7 7 8 8 8 7 8 7 6 5 5 5 6 6 7 7 7 7 6 8 8 8 8 8 8
8 9 5 8 9 9 8 8 8 6 6 5 9 12 10 10 8 6 7 7 7 8 8 7 7 7 7 6 5 5 5 6 5 5 6 6 7 8 9 11 13 14 15 13
7 5 2 6 9 10 6 7 7 5 5 5 4 5 6 5 3 3 5 7 9 9 9 8 7 7 7 6 6 6 6 6 5 6 6 7 7 7 10 10 9 11 11 10
6 3 7 8 8 10 10 9 10 12 11 9 7 6 3 2 1 2 5 7 8 7 8 7 7 8 7 6 6 6 6 8 7 6 6 6 7 7 7 8 10 8 8 9
13 10 6 5 10 14 14 15 18 17 16 15 11 9 7 5 4 4 5 6 6 6 7 7 8 9 6 6 7 7 6 5 5 6 6 6 7 7 7 8 8 8 8 7
7 10 11 13 14 14 15 16 15 14 13 13 13 12 9 6 5 5 4 4 5 8 9 8 10 8 6 7 7 6 5 9 8 6 6 6 6 6 7 7 7 7 7 7
13 13 12 12 12 12 11 10 9 9 10 11 10 9 9 8 7 7 6 5 6 7 7 7 9 7 6 8 7 5 4 6 9 6 5 6 6 6 7 7 7 7 7 7
6 5 5 5 6 8 9 9 9 9 8 8 9 8 8 7 7 8 8 6 6 8 8 8 8 6 7 7 6 5 4 4 4 5 5 6 6 6 6 7 7 8 7 7
7 7 7 7 6 6 7 7 8 8 7 7 7 7 6 6 7 7 7 6 7 9 9 7 8 8 7 8 7 4 4 4 4 4 5 6 6 6 6 6 7 7 7 6
7 7 7 8 8 7 7 7 8 7 7 6 6 6 7 8 8 8 7 7 7 7 7 6 5 5 6 6 7 4 4 4 4 4 4 5 5 6 6 6 7 7 6 6
7 7 8 8 8 8 8 7 7 7 7 6 5 6 7 8 8 7 6 8 9 8 7 7 4 4 4 4 5 3 3 3 3 3 4 5 6 6 6 7 7 6 6 6
6 6 8 8 8 9 9 7 6 6 6 6 6 6 7 8 9 8 7 6 8 10 7 4 3 3 4 5 3 3 2 2 2 2 3 4 5 6 6 7 7 6 6 6
6 6 7 8 8 9 9 7 6 5 6 6 7 7 7 7 6 6 8 7 8 10 7 4 3 2 4 3 2 2 1 0 1 2 3 4 5 6 6 7 6 6 6 7
6 7 7 7 6 6 7 8 7 6 6 7 6 7 6 6 6 5 6 9 10 9 5 3 1 3 4 2 3 2 1 1 2 3 4 5 5 6 6 6 6 6 6 8
7 7 6 7 6 6 7 7 7 7 7 6 8 8 6 4 5 7 7 7 8 6 4 3 4 5 4 4 4 3 3 3 3 4 4 5 5 6 6 6 6 6 6 6
6 6 7 7 6 6 6 5 5 6 5 6 6 6 6 5 5 5 5 5 5 4 4 3 4 5 5 5 5 5 4 4 4 4 5 5 6 6 6 6 8 6 6 6
7 6 5 6 6 6 5 5 5 6 6 6 6 6 6 5 5 4 4 3 3 4 4 5 5 5 5 5 5 5 4 4 4 5 5 5 5 5 6 7 6 5 6 6
Wind_Direction
230 241 244 253 262 206 192 194 190 227 228 246 228 217 217 213 214 219 234 236 234 238 246 252 257 261 260 265 267 260 254 254 256 260 262 264 267 269 269 269 272 270 274 274
275 266 263 265 270 229 208 200 215 244 257 248 232 196 219 222 213 220 233 237 239 240 244 247 247 253 261 265 265 258 252 257 263 267 267 268 269 272 275 276 276 275 275 275
260 305 360 308 262 229 229 211 187 211 239 219 191 206 216 217 210 217 227 231 234 236 235 238 239 241 249 256 265 260 257 264 268 267 269 270 273 277 278 279 278 279 276 274
186 30 250 250 242 220 231 243 211 228 242 212 212 217 225 210 204 218 225 229 233 233 234 235 234 236 244 258 262 263 266 270 271 269 271 274 275 276 277 276 277 279 279 277
137 193 271 294 280 187 190 263 221 220 239 206 118 54 291 228 207 215 218 220 225 224 221 225 232 234 242 259 263 266 267 269 270 271 274 278 278 278 278 278 280 281 280 279
138 173 233 253 268 164 122 274 244 200 206 168 130 176 252 232 207 220 225 223 223 218 209 223 235 220 230 253 261 262 263 266 271 272 273 276 277 278 277 276 279 283 283 279
176 214 257 255 251 127 168 243 237 196 195 173 186 208 225 216 207 214 219 221 213 201 206 221 217 192 225 246 253 255 262 269 274 273 274 276 277 276 279 281 283 283 284 282
147 193 262 253 151 185 220 237 222 207 201 195 215 229 236 234 222 217 217 216 200 196 216 220 200 195 224 242 248 254 260 270 276 279 281 285 281 283 281 279 284 286 286 287
187 217 241 247 220 240 233 240 238 217 215 207 219 231 232 233 230 222 215 208 191 194 213 221 205 199 222 240 239 246 260 272 279 286 285 282 279 282 286 281 279 284 284 287
245 266 264 271 264 261 236 232 246 234 223 202 214 229 230 230 228 221 214 200 186 186 208 225 216 212 223 232 229 238 259 274 282 288 291 289 281 275 278 281 283 284 285 286
257 273 295 295 277 276 283 267 260 253 231 216 219 231 228 227 226 218 205 187 178 190 209 224 219 222 229 228 220 238 259 274 283 284 285 291 288 277 274 269 262 269 280 278
240 249 239 272 298 313 307 297 286 277 273 247 222 236 235 235 233 211 193 179 184 198 210 222 220 228 230 223 214 229 260 274 278 284 288 290 296 300 278 264 270 264 258 257
259 295 312 305 333 342 342 347 358 7 341 325 302 263 257 254 240 194 189 187 197 204 211 216 216 227 230 220 210 221 246 266 276 281 287 293 296 301 309 309 294 282 276 271
335 12 34 13 1 9 22 26 36 34 25 15 2 358 350 330 328 207 210 209 206 208 213 212 217 231 228 211 209 226 245 264 273 276 282 287 290 293 295 301 309 309 305 295
33 51 62 32 31 30 30 33 35 26 18 16 15 15 14 7 332 275 244 222 206 211 221 214 222 235 218 203 210 227 243 258 268 276 280 283 286 289 292 293 293 295 301 303
37 45 41 38 32 26 28 30 29 19 12 10 11 5 358 347 322 296 270 227 211 226 228 220 230 234 206 201 211 227 243 263 274 279 285 289 291 293 298 299 298 298 299 299
47 35 23 22 19 17 18 17 15 5 2 3 358 351 350 345 334 320 302 275 252 252 243 229 237 231 205 202 206 221 240 266 281 286 283 287 291 295 298 298 297 298 296 293
60 46 28 18 7 2 360 359 358 354 349 339 341 347 348 341 321 307 303 298 282 275 263 245 238 227 212 205 206 213 228 251 266 278 285 289 293 295 298 297 297 298 303 307
32 22 9 3 355 345 338 336 334 329 329 333 336 330 320 314 308 305 304 298 285 280 278 261 238 223 216 210 203 203 223 249 266 276 284 292 298 301 302 301 301 302 304 309
13 5 355 345 340 334 325 322 321 318 319 323 320 324 328 324 321 318 314 296 277 273 284 283 253 226 215 207 198 196 216 240 260 277 288 294 301 307 308 307 307 308 310 310
349 341 336 332 324 319 313 311 308 306 308 313 315 316 314 312 317 320 318 310 305 304 298 280 254 228 208 191 187 190 212 233 257 278 293 300 305 309 309 310 311 311 313 313
325 323 323 322 321 317 313 310 302 301 306 312 315 317 320 320 321 319 306 291 301 311 309 291 270 227 194 175 171 181 197 221 262 290 301 306 308 310 310 312 312 314 316 317
308 308 312 313 312 305 309 312 310 309 306 304 305 306 305 300 301 304 309 312 315 316 313 301 284 205 162 147 145 150 155 191 307 309 309 309 308 309 310 313 314 317 319 322
298 300 300 301 308 316 318 314 314 307 298 294 291 291 294 302 306 299 295 309 321 322 323 325 34 106 114 106 109 103 79 23 343 325 318 314 313 313 312 315 319 322 323 327
287 289 293 304 308 299 291 298 306 306 307 302 298 298 296 282 283 301 311 319 329 336 348 24 60 80 85 82 77 66 48 24 360 340 327 321 319 317 316 319 324 325 327 330
279 279 277 272 268 268 274 281 283 286 289 291 293 295 301 305 306 310 318 333 354 12 27 44 59 67 71 71 64 52 36 14 359 345 333 326 321 321 321 323 327 330 329 330
280 276 275 283 283 274 271 272 273 279 280 277 280 288 297 306 315 323 338 359 18 37 50 56 59 61 62 59 53 40 26 9 356 345 337 331 327 324 323 324 327 332 335 336